TimeCDT,TemperatureF,Dew PointF,Humidity,Sea Level PressureIn,VisibilityMPH,Wind Direction,Wind SpeedMPH,Gust SpeedMPH,PrecipitationIn,Events,Conditions,WindDirDegrees,DateUTC
12:05 AM,64.4,62.6,94,29.97,0.5,Calm,Calm,-,N/A,Fog,Fog,0,2013-04-30 05:05:00
12:39 AM,64.4,62.6,94,29.96,1.0,Calm,Calm,-,N/A,,Mist,0,2013-04-30 05:39:00
12:53 AM,64.0,62.1,93,29.95,1.2,Calm,Calm,-,N/A,,Partly Cloudy,0,2013-04-30 05:53:00
12:57 AM,62.6,62.6,100,29.96,3.0,Calm,Calm,-,N/A,,Partly Cloudy,0,2013-04-30 05:57:00
1:08 AM,62.6,60.8,94,29.96,1.8,Calm,Calm,-,N/A,,Partly Cloudy,0,2013-04-30 06:08:00
1:17 AM,62.6,60.8,94,29.96,1.5,Calm,Calm,-,N/A,,Mostly Cloudy,0,2013-04-30 06:17:00
1:30 AM,62.6,60.8,94,29.96,0.5,Calm,Calm,-,N/A,Fog,Fog,0,2013-04-30 06:30:00
1:50 AM,60.8,59.0,94,29.95,0.5,Calm,Calm,-,N/A,Fog,Fog,0,2013-04-30 06:50:00
1:53 AM,61.0,59.0,93,29.95,0.5,Calm,Calm,-,N/A,Fog,Fog,0,2013-04-30 06:53:00
2:53 AM,62.1,60.1,93,29.95,0.5,Calm,Calm,-,N/A,Fog,Fog,0,2013-04-30 07:53:00
3:18 AM,60.8,60.8,100,29.96,0.8,Calm,Calm,-,N/A,,Mist,0,2013-04-30 08:18:00
3:25 AM,60.8,59.0,94,29.96,0.2,Calm,Calm,-,N/A,Fog,Fog,0,2013-04-30 08:25:00
3:53 AM,59.0,57.9,96,29.95,0.2,Calm,Calm,-,N/A,Fog,Fog,0,2013-04-30 08:53:00
4:00 AM,60.8,57.2,88,29.95,1.0,Calm,Calm,-,N/A,,Mist,0,2013-04-30 09:00:00
4:06 AM,60.8,57.2,88,29.95,0.5,Calm,Calm,-,N/A,Fog,Fog,0,2013-04-30 09:06:00
4:17 AM,60.8,57.2,88,29.96,0.5,Calm,Calm,-,N/A,Fog,Fog,0,2013-04-30 09:17:00
4:34 AM,60.8,57.2,88,29.96,1.0,NE,3.5,-,N/A,,Mist,40,2013-04-30 09:34:00
4:40 AM,60.8,57.2,88,29.96,3.0,Calm,Calm,-,N/A,,Mostly Cloudy,0,2013-04-30 09:40:00
4:53 AM,60.1,57.9,93,29.95,3.0,Calm,Calm,-,N/A,,Scattered Clouds,0,2013-04-30 09:53:00
5:01 AM,59.0,57.2,94,29.96,1.8,Calm,Calm,-,N/A,,Partly Cloudy,0,2013-04-30 10:01:00
5:12 AM,59.0,57.2,94,29.96,1.0,Calm,Calm,-,N/A,,Mist,0,2013-04-30 10:12:00
5:29 AM,59.0,57.2,94,29.96,1.8,Calm,Calm,-,N/A,,Scattered Clouds,0,2013-04-30 10:29:00
5:37 AM,59.0,57.2,94,29.96,2.0,Calm,Calm,-,N/A,,Partly Cloudy,0,2013-04-30 10:37:00
5:51 AM,59.0,57.2,94,29.96,4.0,Calm,Calm,-,N/A,,Clear,0,2013-04-30 10:51:00
5:53 AM,57.9,55.9,93,29.96,3.0,East,3.5,-,N/A,,Partly Cloudy,90,2013-04-30 10:53:00
5:55 AM,57.2,55.4,94,29.97,1.8,East,3.5,-,N/A,,Partly Cloudy,90,2013-04-30 10:55:00
6:01 AM,57.2,55.4,94,29.97,0.5,Calm,Calm,-,N/A,Fog,Fog,0,2013-04-30 11:01:00
6:09 AM,59.0,57.2,94,29.97,0.2,Calm,Calm,-,N/A,Fog,Fog,0,2013-04-30 11:09:00
6:39 AM,59.0,57.2,94,29.98,0.5,Calm,Calm,-,N/A,Fog,Fog,0,2013-04-30 11:39:00
6:46 AM,60.8,57.2,88,29.99,1.0,Calm,Calm,-,N/A,,Mist,0,2013-04-30 11:46:00
6:53 AM,60.1,57.9,93,29.99,3.0,Calm,Calm,-,N/A,,Overcast,0,2013-04-30 11:53:00
7:04 AM,60.8,59.0,94,29.99,7.0,ENE,3.5,-,N/A,,Overcast,60,2013-04-30 12:04:00
7:22 AM,60.8,60.8,100,29.99,7.0,ENE,3.5,-,N/A,,Overcast,70,2013-04-30 12:22:00
7:29 AM,62.6,60.8,94,29.99,1.8,Calm,Calm,-,N/A,,Overcast,0,2013-04-30 12:29:00
7:33 AM,62.6,60.8,94,30.00,0.8,ENE,3.5,-,N/A,,Overcast,60,2013-04-30 12:33:00
7:40 AM,62.6,60.8,94,30.00,0.2,ENE,3.5,-,N/A,Fog,Fog,70,2013-04-30 12:40:00
7:53 AM,63.0,62.1,97,29.99,0.2,Calm,Calm,-,N/A,Fog,Fog,0,2013-04-30 12:53:00
8:53 AM,66.9,64.9,93,30.00,0.5,Calm,Calm,-,N/A,Fog,Fog,0,2013-04-30 13:53:00
8:58 AM,66.2,64.4,94,30.00,1.0,Calm,Calm,-,N/A,,Mist,0,2013-04-30 13:58:00
9:06 AM,68.0,66.2,94,30.00,3.0,ESE,3.5,-,N/A,,Overcast,120,2013-04-30 14:06:00
9:39 AM,69.8,66.2,88,30.01,8.0,SE,4.6,-,N/A,,Overcast,140,2013-04-30 14:39:00
9:53 AM,72.0,66.9,84,29.99,9.0,SE,6.9,-,N/A,,Mostly Cloudy,130,2013-04-30 14:53:00
10:03 AM,75.2,68.0,78,30.00,10.0,East,5.8,-,N/A,,Scattered Clouds,90,2013-04-30 15:03:00
10:53 AM,79.0,64.9,62,30.00,10.0,Variable,6.9,-,N/A,,Mostly Cloudy,0,2013-04-30 15:53:00
11:53 AM,81.0,64.0,56,29.98,10.0,Variable,4.6,-,N/A,,Mostly Cloudy,0,2013-04-30 16:53:00
12:53 PM,82.0,64.0,54,29.98,10.0,Variable,3.5,-,N/A,,Mostly Cloudy,0,2013-04-30 17:53:00
1:53 PM,82.0,63.0,52,29.96,10.0,East,4.6,-,N/A,,Mostly Cloudy,80,2013-04-30 18:53:00
2:50 PM,78.8,66.2,65,29.96,2.5,West,19.6,24.2,0.04,Rain-Thunderstorm,Thunderstorms and Rain,270,2013-04-30 19:50:00
2:53 PM,75.0,64.0,69,29.95,1.5,WNW,9.2,24.2,0.08,Rain-Thunderstorm,Heavy Thunderstorms and Rain,290,2013-04-30 19:53:00
3:01 PM,75.2,64.4,69,29.95,2.5,NW,5.8,-,0.00,Rain,Light Rain,320,2013-04-30 20:01:00
3:08 PM,75.2,69.8,83,29.95,8.0,NE,9.2,-,0.00,Rain-Thunderstorm,Light Rain,50,2013-04-30 20:08:00
3:53 PM,79.0,66.9,66,29.94,10.0,ENE,6.9,-,0.00,Thunderstorm,Clear,70,2013-04-30 20:53:00
4:26 PM,78.8,68.0,69,29.94,10.0,East,5.8,-,N/A,,Clear,80,2013-04-30 21:26:00
4:53 PM,77.0,66.9,71,29.94,10.0,ENE,8.1,-,N/A,,Partly Cloudy,70,2013-04-30 21:53:00
5:53 PM,73.9,66.9,79,29.95,10.0,East,5.8,-,N/A,,Mostly Cloudy,80,2013-04-30 22:53:00
6:53 PM,73.0,66.9,81,29.96,10.0,Calm,Calm,-,0.00,,Clear,0,2013-04-30 23:53:00
7:53 PM,71.1,63.0,75,29.96,10.0,Calm,Calm,-,N/A,,Clear,0,2013-05-01 00:53:00
8:53 PM,69.1,64.0,84,29.98,10.0,ENE,3.5,-,N/A,,Scattered Clouds,70,2013-05-01 01:53:00
9:53 PM,69.1,63.0,81,29.99,10.0,Calm,Calm,-,N/A,,Overcast,0,2013-05-01 02:53:00
10:53 PM,68.0,64.0,87,29.98,10.0,Calm,Calm,-,N/A,,Scattered Clouds,0,2013-05-01 03:53:00
11:53 PM,66.9,64.0,90,29.97,10.0,Calm,Calm,-,N/A,,Scattered Clouds,0,2013-05-01 04:53:00